Tracking 25734 objects as of 26-May-2022
HD Live streaming from Space Station
objects crossing your sky now

ONEWEB-0260

Track ONEWEB-0260 now!
10-day predictions
ONEWEB-0260 is classified as:


NORAD ID: 48978
Int'l Code: 2021-061M
Perigee: 1,202.9 km
Apogee: 1,207.0 km
Inclination: 87.9 °
Period: 109.4 minutes
Semi major axis: 7575 km
RCS: Unknown
Launch date: July 1, 2021
Source: United Kingdom (UK)
Launch site: VOSTOCHNY COSMODROME (VOSTO)
aabbcc
Your satellite tracking list
Your tracking list is empty




NASA's NSSDC Master Catalog

Two Line Element Set (TLE):
1 48978U 21060M   22145.91667824  .00045793  00000-0  11919+0 0  9990
2 48978  87.9112 164.0593 0002729  72.2600 196.6965 13.16573976  1305
Source of the keplerian elements: AFSPC